| time (UTC) | temp C | wind direction | speed KPH | gust KPH | rain 1hr cm | rain 24hr cm | rain mn cm | humidity % | barometer mb |
| 20260906214114 | 25 | 105 | 3.2 | 3.2 | 0.00 | 0.00 | 0.00 | 41 | 1023.0 |
| 20260906213114 | 23 | 101 | 1.6 | 3.2 | 0.00 | 0.00 | 0.00 | 43 | 1023.1 |
| 20260906212113 | 23 | 209 | 8.0 | 11.3 | 0.00 | 0.00 | 0.00 | 44 | 1023.6 |
| 20260906211108 | 26 | 12 | 3.2 | 3.2 | 0.00 | 0.00 | 0.00 | 37 | 1023.8 |
| 20260906210104 | 26 | 80 | 9.7 | 14.5 | 0.00 | 0.00 | 0.00 | 37 | 1023.1 |
| 20260906205102 | 26 | 85 | 11.3 | 11.3 | 0.00 | 0.00 | 0.00 | 38 | 1023.3 |
| 20260906204102 | 26 | 38 | 9.7 | 12.9 | 0.00 | 0.00 | 0.00 | 39 | 1023.3 |
| 20260906203102 | 27 | 34 | 14.5 | 17.7 | 0.00 | 0.00 | 0.00 | 39 | 1023.1 |
| 20260906202059 | 27 | 71 | 17.7 | 24.1 | 0.00 | 0.00 | 0.00 | 40 | 1023.4 |
| 20260906201058 | 27 | 44 | 8.0 | 12.9 | 0.00 | 0.00 | 0.00 | 40 | 1023.4 |
| 20260906200056 | 27 | 55 | 8.0 | 12.9 | 0.00 | 0.00 | 0.00 | 38 | 1023.5 |
| 20260906195054 | 27 | 86 | 11.3 | 12.9 | 0.00 | 0.00 | 0.00 | 39 | 1023.8 |
| 20260906194051 | 27 | 64 | 9.7 | 14.5 | 0.00 | 0.00 | 0.00 | 41 | 1023.6 |
| 20260906193046 | 28 | 114 | 11.3 | 14.5 | 0.00 | 0.00 | 0.00 | 39 | 1023.9 |
| 20260906192046 | 26 | 76 | 12.9 | 20.9 | 0.00 | 0.00 | 0.00 | 41 | 1023.8 |
| 20260906191046 | 26 | 65 | 11.3 | 14.5 | 0.00 | 0.00 | 0.00 | 41 | 1023.8 |
| 20260906190041 | 26 | 104 | 9.7 | 12.9 | 0.00 | 0.00 | 0.00 | 41 | 1023.8 |
| 20260906185039 | 26 | 86 | 9.7 | 12.9 | 0.00 | 0.00 | 0.00 | 43 | 1024.4 |
| 20260906184036 | 27 | 86 | 4.8 | 8.0 | 0.00 | 0.00 | 0.00 | 43 | 1024.4 |
| 20260906183033 | 27 | 129 | 6.4 | 8.0 | 0.00 | 0.00 | 0.00 | 40 | 1024.9 |
| 20260906182030 | 27 | 80 | 4.8 | 4.8 | 0.00 | 0.00 | 0.00 | 35 | 1024.7 |
| 20260906181027 | 27 | 57 | 6.4 | 12.9 | 0.00 | 0.00 | 0.00 | 32 | 1024.6 |
| 20260906180027 | 27 | 72 | 6.4 | 9.7 | 0.00 | 0.00 | 0.00 | 29 | 1025.1 |
| 20260906175026 | 28 | 78 | 8.0 | 9.7 | 0.00 | 0.00 | 0.00 | 29 | 1025.2 |
| 20260906174025 | 27 | 75 | 6.4 | 9.7 | 0.00 | 0.00 | 0.00 | 29 | 1025.5 |
| 20260906173022 | 27 | 42 | 6.4 | 8.0 | 0.00 | 0.00 | 0.00 | 29 | 1025.4 |
| 20260906172018 | 26 | 318 | 3.2 | 3.2 | 0.00 | 0.00 | 0.00 | 30 | 1025.4 |
| 20260906171014 | 26 | 269 | 4.8 | 8.0 | 0.00 | 0.00 | 0.00 | 30 | 1025.8 |
| 20260906170008 | 26 | 55 | 3.2 | 3.2 | 0.00 | 0.00 | 0.00 | 30 | 1025.7 |
| 20260906165007 | 27 | 345 | 9.7 | 9.7 | 0.00 | 0.00 | 0.00 | 30 | 1025.7 |
| 20260906164002 | 26 | 235 | 4.8 | 4.8 | 0.00 | 0.00 | 0.00 | 30 | 1026.0 |
| 20260906163002 | 26 | 78 | 1.6 | 1.6 | 0.00 | 0.00 | 0.00 | 31 | 1025.7 |
| 20260906162001 | 25 | 180 | 0.0 | 1.6 | 0.00 | 0.00 | 0.00 | 31 | 1025.8 |
| 20260906161000 | 25 | 255 | 4.8 | 4.8 | 0.00 | 0.00 | 0.00 | 33 | 1026.1 |
| 20260906155958 | 25 | 30 | 1.6 | 3.2 | 0.00 | 0.00 | 0.00 | 35 | 1026.0 |
| 20260906154953 | 23 | 122 | 0.0 | 0.0 | 0.00 | 0.00 | 0.00 | 39 | 1026.0 |
| 20260906153952 | 22 | 87 | 0.0 | 0.0 | 0.00 | 0.00 | 0.00 | 43 | 1026.0 |
| 20260906152953 | 21 | 76 | 1.6 | 1.6 | 0.00 | 0.00 | 0.00 | 45 | 1026.1 |
| 20260906151952 | 20 | 84 | 0.0 | 0.0 | 0.00 | 0.00 | 0.00 | 47 | 1026.3 |
| 20260906150949 | 20 | 84 | 0.0 | 0.0 | 0.00 | 0.00 | 0.00 | 46 | 1026.6 |
| 20260906145949 | 20 | 70 | 6.4 | 8.0 | 0.00 | 0.00 | 0.00 | 47 | 1026.3 |
| 20260906144949 | 18 | 87 | 3.2 | 3.2 | 0.00 | 0.00 | 0.00 | 50 | 1026.5 |
| 20260906143945 | 18 | 68 | 3.2 | 4.8 | 0.00 | 0.00 | 0.00 | 51 | 1026.2 |
| 20260906142942 | 17 | 67 | 1.6 | 1.6 | 0.00 | 0.00 | 0.00 | 54 | 1026.5 |
| 20260906141937 | 16 | 103 | 3.2 | 3.2 | 0.00 | 0.00 | 0.00 | 57 | 1026.3 |
| 20260906140937 | 16 | 76 | 1.6 | 3.2 | 0.00 | 0.00 | 0.00 | 59 | 1026.2 |
| 20260906135936 | 16 | 108 | 0.0 | 0.0 | 0.00 | 0.00 | 0.00 | 56 | 1026.2 |
| 20260906134931 | 15 | 356 | 1.6 | 1.6 | 0.00 | 0.00 | 0.00 | 61 | 1026.2 |
| 20260906133927 | 13 | 252 | 0.0 | 0.0 | 0.00 | 0.00 | 0.00 | 64 | 1026.6 |
| 20260906132924 | 11 | 287 | 0.0 | 1.6 | 0.00 | 0.00 | 0.00 | 70 | 1026.3 |
| 20260906131920 | 11 | 294 | 3.2 | 3.2 | 0.00 | 0.00 | 0.00 | 70 | 1026.5 |
| 20260906130917 | 10 | 276 | 1.6 | 1.6 | 0.00 | 0.00 | 0.00 | 71 | 1026.6 |
| 20260906125916 | 10 | 277 | 0.0 | 0.0 | 0.00 | 0.00 | 0.00 | 74 | 1026.5 |
| 20260906124914 | 8 | 277 | 1.6 | 1.6 | 0.00 | 0.00 | 0.00 | 77 | 1026.2 |
| 20260906123909 | 8 | 278 | 1.6 | 1.6 | 0.00 | 0.00 | 0.00 | 80 | 1026.3 |
| 20260906122909 | 8 | 289 | 1.6 | 3.2 | 0.00 | 0.00 | 0.00 | 79 | 1026.6 |
| 20260906121907 | 8 | 83 | 0.0 | 0.0 | 0.00 | 0.00 | 0.00 | 79 | 1026.5 |
| 20260906120904 | 10 | 90 | 1.6 | 1.6 | 0.00 | 0.00 | 0.00 | 74 | 1026.1 |
| 20260906115901 | 8 | 188 | 1.6 | 1.6 | 0.00 | 0.00 | 0.00 | 77 | 1026.2 |
| 20260906114856 | 9 | 264 | 0.0 | 0.0 | 0.00 | 0.00 | 0.00 | 76 | 1026.2 |
| 20260906113853 | 8 | 216 | 1.6 | 3.2 | 0.00 | 0.00 | 0.00 | 78 | 1026.2 |
| 20260906112847 | 10 | 190 | 0.0 | 0.0 | 0.00 | 0.00 | 0.00 | 75 | 1026.2 |
| 20260906111843 | 10 | 146 | 0.0 | 0.0 | 0.00 | 0.00 | 0.00 | 75 | 1026.1 |
| 20260906110838 | 10 | 152 | 1.6 | 1.6 | 0.00 | 0.00 | 0.00 | 75 | 1026.1 |
| 20260906105838 | 11 | 194 | 0.0 | 0.0 | 0.00 | 0.00 | 0.00 | 71 | 1026.0 |
| 20260906104836 | 11 | 226 | 1.6 | 1.6 | 0.00 | 0.00 | 0.00 | 70 | 1026.1 |
| 20260906103833 | 11 | 204 | 3.2 | 3.2 | 0.00 | 0.00 | 0.00 | 71 | 1025.8 |
| 20260906102834 | 10 | 265 | 4.8 | 4.8 | 0.00 | 0.00 | 0.00 | 74 | 1025.7 |
| 20260906101828 | 10 | 225 | 1.6 | 1.6 | 0.00 | 0.00 | 0.00 | 74 | 1026.0 |
| 20260906100824 | 11 | 274 | 1.6 | 1.6 | 0.00 | 0.00 | 0.00 | 72 | 1026.1 |
| 20260906095824 | 11 | 227 | 0.0 | 1.6 | 0.00 | 0.00 | 0.00 | 72 | 1026.3 |
| 20260906094819 | 11 | 286 | 1.6 | 1.6 | 0.00 | 0.00 | 0.00 | 73 | 1026.1 |
| 20260906093817 | 10 | 249 | 3.2 | 3.2 | 0.00 | 0.00 | 0.00 | 72 | 1025.7 |
| 20260906092813 | 11 | 282 | 1.6 | 1.6 | 0.00 | 0.00 | 0.00 | 71 | 1025.8 |
| 20260906091809 | 10 | 268 | 3.2 | 3.2 | 0.00 | 0.00 | 0.00 | 75 | 1025.8 |
| 20260906090807 | 10 | 319 | 0.0 | 0.0 | 0.00 | 0.00 | 0.00 | 72 | 1025.7 |
| 20260906085806 | 11 | 208 | 0.0 | 1.6 | 0.00 | 0.00 | 0.00 | 70 | 1025.6 |
| 20260906084800 | 11 | 269 | 4.8 | 4.8 | 0.00 | 0.00 | 0.00 | 69 | 1025.6 |
| 20260906083800 | 10 | 236 | 1.6 | 1.6 | 0.00 | 0.00 | 0.00 | 72 | 1026.1 |
| 20260906082756 | 10 | 267 | 4.8 | 4.8 | 0.00 | 0.00 | 0.00 | 71 | 1025.7 |
| 20260906081753 | 10 | 224 | 3.2 | 3.2 | 0.00 | 0.00 | 0.00 | 72 | 1026.0 |
| 20260906080751 | 10 | 181 | 1.6 | 1.6 | 0.00 | 0.00 | 0.00 | 70 | 1026.1 |
| 20260906075747 | 10 | 174 | 3.2 | 3.2 | 0.00 | 0.00 | 0.00 | 73 | 1026.2 |
| 20260906074742 | 10 | 192 | 1.6 | 1.6 | 0.00 | 0.00 | 0.00 | 72 | 1026.2 |
| 20260906073741 | 11 | 260 | 1.6 | 1.6 | 0.00 | 0.00 | 0.00 | 69 | 1026.2 |
| 20260906072737 | 11 | 279 | 3.2 | 4.8 | 0.00 | 0.00 | 0.00 | 67 | 1026.1 |
| 20260906071735 | 11 | 356 | 1.6 | 1.6 | 0.00 | 0.00 | 0.00 | 70 | 1026.5 |
| 20260906070731 | 11 | 241 | 1.6 | 1.6 | 0.00 | 0.00 | 0.00 | 68 | 1026.2 |
| 20260906065726 | 11 | 247 | 0.0 | 0.0 | 0.00 | 0.00 | 0.00 | 70 | 1026.6 |
| 20260906064722 | 11 | 239 | 1.6 | 1.6 | 0.00 | 0.00 | 0.00 | 69 | 1026.5 |
| 20260906063719 | 12 | 272 | 4.8 | 4.8 | 0.00 | 0.00 | 0.00 | 68 | 1026.2 |
| 20260906062716 | 12 | 239 | 4.8 | 8.0 | 0.00 | 0.00 | 0.00 | 67 | 1026.1 |
| 20260906061711 | 12 | 222 | 1.6 | 1.6 | 0.00 | 0.00 | 0.00 | 66 | 1025.8 |
| 20260906060708 | 12 | 286 | 3.2 | 3.2 | 0.00 | 0.00 | 0.00 | 65 | 1026.2 |
| 20260906055707 | 13 | 278 | 6.4 | 8.0 | 0.00 | 0.05 | 0.05 | 63 | 1025.8 |
| 20260906054703 | 12 | 212 | 3.2 | 3.2 | 0.00 | 0.05 | 0.05 | 66 | 1026.0 |
| 20260906053700 | 12 | 213 | 4.8 | 4.8 | 0.00 | 0.05 | 0.05 | 67 | 1026.0 |
| 20260906052656 | 12 | 270 | 0.0 | 0.0 | 0.00 | 0.05 | 0.05 | 70 | 1026.1 |
| 20260906051655 | 12 | 123 | 1.6 | 1.6 | 0.00 | 0.05 | 0.05 | 70 | 1025.8 |
| 20260906050650 | 12 | 116 | 1.6 | 1.6 | 0.00 | 0.05 | 0.05 | 67 | 1025.7 |
| 20260906045649 | 13 | 219 | 0.0 | 1.6 | 0.00 | 0.05 | 0.05 | 64 | 1025.7 |
| 20260906044647 | 13 | 282 | 0.0 | 0.0 | 0.00 | 0.05 | 0.05 | 65 | 1025.6 |
| 20260906043644 | 13 | 220 | 0.0 | 1.6 | 0.00 | 0.05 | 0.05 | 64 | 1025.7 |
| 20260906042645 | 14 | 261 | 1.6 | 1.6 | 0.00 | 0.05 | 0.05 | 63 | 1025.7 |
| 20260906041640 | 14 | 263 | 1.6 | 1.6 | 0.00 | 0.05 | 0.05 | 62 | 1025.7 |
| 20260906040636 | 13 | 163 | 1.6 | 1.6 | 0.00 | 0.05 | 0.05 | 63 | 1025.8 |
| 20260906035633 | 14 | 231 | 1.6 | 1.6 | 0.00 | 0.05 | 0.05 | 63 | 1025.5 |
| 20260906034629 | 14 | 232 | 0.0 | 1.6 | 0.00 | 0.05 | 0.05 | 63 | 1025.8 |
| 20260906033625 | 15 | 229 | 1.6 | 3.2 | 0.00 | 0.05 | 0.05 | 62 | 1025.8 |
| 20260906032622 | 14 | 211 | 3.2 | 3.2 | 0.00 | 0.05 | 0.05 | 61 | 1026.1 |
| 20260906031617 | 14 | 278 | 6.4 | 8.0 | 0.00 | 0.05 | 0.05 | 65 | 1025.7 |
| 20260906030617 | 15 | 251 | 3.2 | 4.8 | 0.00 | 0.05 | 0.05 | 59 | 1025.5 |
| 20260906025612 | 15 | 261 | 6.4 | 8.0 | 0.00 | 0.05 | 0.05 | 60 | 1025.7 |
| 20260906024612 | 14 | 286 | 1.6 | 3.2 | 0.00 | 0.05 | 0.05 | 65 | 1025.6 |
| 20260906023609 | 15 | 278 | 3.2 | 3.2 | 0.00 | 0.05 | 0.05 | 62 | 1025.2 |
| 20260906022604 | 15 | 246 | 1.6 | 3.2 | 0.00 | 0.05 | 0.05 | 63 | 1025.4 |
| 20260906021601 | 16 | 280 | 6.4 | 8.0 | 0.00 | 0.05 | 0.05 | 61 | 1025.1 |
| 20260906020600 | 17 | 234 | 1.6 | 3.2 | 0.00 | 0.05 | 0.05 | 57 | 1025.0 |
| 20260906015559 | 16 | 272 | 4.8 | 4.8 | 0.00 | 0.05 | 0.05 | 60 | 1025.1 |
| 20260906014559 | 17 | 278 | 6.4 | 8.0 | 0.00 | 0.05 | 0.05 | 58 | 1025.1 |
| 20260906013557 | 17 | 272 | 6.4 | 8.0 | 0.00 | 0.05 | 0.05 | 57 | 1024.9 |
| 20260906012553 | 18 | 258 | 1.6 | 1.6 | 0.00 | 0.05 | 0.05 | 59 | 1025.4 |
| 20260906011549 | 20 | 296 | 3.2 | 3.2 | 0.00 | 0.05 | 0.05 | 57 | 1025.4 |
| 20260906010544 | 20 | 339 | 1.6 | 3.2 | 0.00 | 0.05 | 0.05 | 53 | 1025.4 |
| 20260906005539 | 21 | 231 | 6.4 | 8.0 | 0.00 | 0.05 | 0.05 | 50 | 1025.4 |
| 20260906004538 | 21 | 257 | 8.0 | 9.7 | 0.00 | 0.05 | 0.05 | 49 | 1025.2 |
| 20260906003534 | 21 | 250 | 9.7 | 11.3 | 0.00 | 0.05 | 0.05 | 49 | 1025.4 |
| 20260906002530 | 21 | 252 | 6.4 | 9.7 | 0.00 | 0.05 | 0.05 | 50 | 1025.6 |
| 20260906001526 | 22 | 255 | 4.8 | 4.8 | 0.00 | 0.05 | 0.05 | 47 | 1026.0 |
| 20260906000523 | 23 | 170 | 3.2 | 3.2 | 0.00 | 0.05 | 0.05 | 45 | 1026.2 |
| 20260905235523 | 23 | 161 | 1.6 | 1.6 | 0.00 | 0.05 | 0.05 | 46 | 1026.0 |
| 20260905234520 | 22 | 76 | 1.6 | 1.6 | 0.00 | 0.05 | 0.05 | 50 | 1026.1 |
| 20260905233515 | 22 | 110 | 1.6 | 1.6 | 0.00 | 0.05 | 0.05 | 48 | 1026.3 |
| 20260905232510 | 21 | 264 | 1.6 | 3.2 | 0.00 | 0.05 | 0.05 | 49 | 1026.2 |
| 20260905231507 | 18 | 266 | 14.5 | 14.5 | 0.18 | 0.05 | 0.05 | 64 | 1026.0 |
| 20260905230502 | 22 | 239 | 4.8 | 4.8 | 0.13 | 0.03 | 0.03 | 65 | 1025.5 |
| 20260905225501 | 25 | 270 | 1.6 | 1.6 | 0.00 | 0.00 | 0.00 | 33 | 1024.9 |
| 20260905224457 | 25 | 333 | 1.6 | 1.6 | 0.00 | 0.00 | 0.00 | 33 | 1024.6 |
| 20260905223454 | 26 | 74 | 6.4 | 8.0 | 0.00 | 0.00 | 0.00 | 33 | 1024.4 |
| 20260905222449 | 26 | 45 | 0.0 | 1.6 | 0.00 | 0.00 | 0.00 | 33 | 1024.4 |
| 20260905221447 | 26 | 19 | 1.6 | 3.2 | 0.00 | 0.00 | 0.00 | 33 | 1024.5 |
| 20260905220445 | 26 | 71 | 4.8 | 4.8 | 0.00 | 0.00 | 0.00 | 33 | 1024.4 |
| 20260905215439 | 26 | 63 | 6.4 | 8.0 | 0.00 | 0.00 | 0.00 | 32 | 1024.5 |